Time,TemperatureF,DewpointF,PressureIn,WindDirection,WindDirectionDegrees,WindSpeedMPH,WindSpeedGustMPH,Humidity,HourlyPrecipIn,Conditions,Clouds,dailyrainin,SolarRadiationWatts/m^2,SoftwareType,DateUTC
2013-03-14 09:52:00,84.0,24.0,30.07,South,179,2.0,3.0,11,-99.99,,,-99.99,460.000000,,2013-03-14 16:52:00,
2013-03-14 10:02:00,84.0,24.0,30.07,South,179,2.0,3.0,11,-99.99,,,-99.99,460.000000,,2013-03-14 17:02:00,
2013-03-14 10:12:00,85.0,25.0,30.07,South,179,1.0,2.0,11,-99.99,,,-99.99,500.000000,,2013-03-14 17:12:00,
2013-03-14 10:23:00,86.0,23.0,30.07,South,171,1.0,3.0,10,-99.99,,,-99.99,530.000000,,2013-03-14 17:23:00,
2013-03-14 10:32:00,86.0,23.0,30.07,South,172,3.0,4.0,10,-99.99,,,-99.99,570.000000,,2013-03-14 17:32:00,
2013-03-14 10:42:00,86.0,23.0,30.07,South,176,2.0,3.0,10,-99.99,,,-99.99,600.000000,,2013-03-14 17:42:00,
2013-03-14 10:52:00,87.0,24.0,30.07,NNE,16,1.0,4.0,10,-99.99,,,-99.99,630.000000,,2013-03-14 17:52:00,
2013-03-14 11:02:00,87.0,24.0,30.07,North,353,4.0,6.0,10,-99.99,,,-99.99,660.000000,,2013-03-14 18:02:00,
2013-03-14 11:12:00,87.0,26.0,30.07,North,356,3.0,5.0,11,-99.99,,,-99.99,690.000000,,2013-03-14 18:12:00,
2013-03-14 11:22:00,88.0,24.0,30.08,NNE,22,4.0,8.0,10,-99.99,,,-99.99,740.000000,,2013-03-14 18:22:00,
2013-03-14 11:32:00,88.0,24.0,30.08,NNE,22,4.0,8.0,10,-99.99,,,-99.99,740.000000,,2013-03-14 18:32:00,
2013-03-14 11:42:00,88.0,24.0,30.08,NE,54,6.0,12.0,10,-99.99,,,-99.99,770.000000,,2013-03-14 18:42:00,
2013-03-14 11:50:00,90.0,26.0,30.07,NE,56,4.0,9.0,10,-99.99,,,-99.99,860.000000,,2013-03-14 18:50:00,
2013-03-14 11:52:00,88.0,25.0,30.08,ENE,68,5.0,9.0,10,-99.99,,,-99.99,810.000000,,2013-03-14 18:52:00,
2013-03-14 12:02:00,88.0,25.0,30.08,ENE,68,5.0,9.0,10,-99.99,,,-99.99,810.000000,,2013-03-14 19:02:00,
2013-03-14 12:12:00,88.0,25.0,30.08,ENE,68,5.0,9.0,10,-99.99,,,-99.99,810.000000,,2013-03-14 19:12:00,
2013-03-14 12:22:00,88.0,25.0,30.07,ENE,70,5.0,8.0,10,-99.99,,,-99.99,850.000000,,2013-03-14 19:22:00,
2013-03-14 12:32:00,90.0,26.0,30.07,NE,56,4.0,9.0,10,-99.99,,,-99.99,860.000000,,2013-03-14 19:32:00,
2013-03-14 12:42:00,90.0,26.0,30.07,NE,56,4.0,9.0,10,-99.99,,,-99.99,860.000000,,2013-03-14 19:42:00,
2013-03-14 13:42:00,91.0,24.0,30.05,North,11,5.0,10.0,9,-99.99,,,-99.99,910.000000,,2013-03-14 20:42:00,
2013-03-14 13:52:00,91.0,24.0,30.05,NE,55,3.0,7.0,9,-99.99,,,-99.99,910.000000,,2013-03-14 20:52:00,
2013-03-14 14:02:00,91.0,24.0,30.05,NE,55,3.0,7.0,9,-99.99,,,-99.99,910.000000,,2013-03-14 21:02:00,
2013-03-14 14:12:00,91.0,24.0,30.04,NNW,340,3.0,7.0,9,-99.99,,,-99.99,880.000000,,2013-03-14 21:12:00,
2013-03-14 14:22:00,91.0,24.0,30.04,NNW,340,3.0,7.0,9,-99.99,,,-99.99,880.000000,,2013-03-14 21:22:00,
2013-03-14 14:32:00,93.0,26.0,30.03,NE,40,3.0,7.0,9,-99.99,,,-99.99,890.000000,,2013-03-14 21:32:00,
2013-03-14 14:43:00,93.0,26.0,30.03,NE,40,3.0,7.0,9,-99.99,,,-99.99,890.000000,,2013-03-14 21:43:00,
2013-03-14 14:52:00,92.0,25.0,30.02,ENE,63,6.0,12.0,9,-99.99,,,-99.99,870.000000,,2013-03-14 21:52:00,
2013-03-14 15:03:00,92.0,25.0,30.02,East,87,4.0,9.0,9,-99.99,,,-99.99,830.000000,,2013-03-14 22:03:00,
2013-03-14 15:12:00,92.0,25.0,30.02,East,87,4.0,9.0,9,-99.99,,,-99.99,830.000000,,2013-03-14 22:12:00,
2013-03-14 15:23:00,93.0,26.0,30.01,ENE,65,5.0,11.0,9,-99.99,,,-99.99,810.000000,,2013-03-14 22:23:00,
2013-03-14 15:33:00,92.0,25.0,30.00,NNE,27,5.0,9.0,9,-99.99,,,-99.99,790.000000,,2013-03-14 22:33:00,
2013-03-14 15:42:00,92.0,25.0,30.00,NNE,27,5.0,9.0,9,-99.99,,,-99.99,790.000000,,2013-03-14 22:42:00,
2013-03-14 15:52:00,93.0,26.0,30.00,ENE,75,6.0,13.0,9,-99.99,,,-99.99,770.000000,,2013-03-14 22:52:00,
2013-03-14 16:02:00,94.0,24.0,30.00,NNE,30,3.0,8.0,8,-99.99,,,-99.99,750.000000,,2013-03-14 23:02:00,
2013-03-14 16:12:00,93.0,23.0,29.99,NE,50,4.0,11.0,8,-99.99,,,-99.99,690.000000,,2013-03-14 23:12:00,
2013-03-14 16:22:00,94.0,24.0,29.99,ESE,114,2.0,7.0,8,-99.99,,,-99.99,670.000000,,2013-03-14 23:22:00,
2013-03-14 16:33:00,94.0,24.0,29.99,East,84,4.0,8.0,8,-99.99,,,-99.99,640.000000,,2013-03-14 23:33:00,
2013-03-14 16:42:00,93.0,23.0,29.99,NE,47,3.0,7.0,8,-99.99,,,-99.99,600.000000,,2013-03-14 23:42:00,
2013-03-14 16:53:00,94.0,23.0,29.98,ENE,78,5.0,11.0,8,-99.99,,,-99.99,570.000000,,2013-03-14 23:53:00,
2013-03-14 17:02:00,93.0,23.0,29.98,ESE,105,3.0,7.0,8,-99.99,,,-99.99,540.000000,,2013-03-15 00:02:00,
2013-03-14 17:12:00,94.0,24.0,29.98,SSW,193,3.0,7.0,8,-99.99,,,-99.99,500.000000,,2013-03-15 00:12:00,
2013-03-14 17:22:00,94.0,24.0,29.98,SSW,193,3.0,7.0,8,-99.99,,,-99.99,500.000000,,2013-03-15 00:22:00,
2013-03-14 17:32:00,94.0,23.0,29.97,East,91,4.0,9.0,8,-99.99,,,-99.99,460.000000,,2013-03-15 00:32:00,
2013-03-14 17:42:00,93.0,26.0,29.96,East,86,3.0,8.0,9,-99.99,,,-99.99,390.000000,,2013-03-15 00:42:00,
2013-03-14 17:52:00,92.0,25.0,29.96,ENE,72,5.0,11.0,9,-99.99,,,-99.99,350.000000,,2013-03-15 00:52:00,
2013-03-14 18:02:00,92.0,28.0,29.96,ENE,58,5.0,9.0,10,-99.99,,,-99.99,310.000000,,2013-03-15 01:02:00,
2013-03-14 18:11:00,93.0,28.0,29.96,ENE,64,4.0,9.0,10,-99.99,,,-99.99,270.000000,,2013-03-15 01:11:00,
2013-03-14 18:22:00,92.0,30.0,29.96,ENE,62,6.0,10.0,11,-99.99,,,-99.99,230.000000,,2013-03-15 01:22:00,
2013-03-14 18:32:00,91.0,29.0,29.96,East,99,4.0,9.0,11,-99.99,,,-99.99,150.000000,,2013-03-15 01:32:00,
2013-03-14 18:42:00,90.0,30.0,29.95,East,97,4.0,9.0,12,-99.99,,,-99.99,30.000000,,2013-03-15 01:42:00,
2013-03-14 18:52:00,89.0,30.0,29.95,East,93,5.0,8.0,12,-99.99,,,-99.99,30.000000,,2013-03-15 01:52:00,
2013-03-14 19:02:00,88.0,29.0,29.94,East,97,5.0,8.0,12,-99.99,,,-99.99,20.000000,,2013-03-15 02:02:00,
2013-03-14 19:12:00,88.0,29.0,29.94,ESE,112,4.0,8.0,12,-99.99,,,-99.99,10.000000,,2013-03-15 02:12:00,
2013-03-14 19:22:00,88.0,29.0,29.94,ESE,109,5.0,9.0,12,-99.99,,,-99.99,10.000000,,2013-03-15 02:22:00,
2013-03-14 19:32:00,87.0,28.0,29.94,ESE,112,5.0,9.0,12,-99.99,,,-99.99,0.000000,,2013-03-15 02:32:00,
2013-03-14 19:42:00,87.0,28.0,29.94,East,98,4.0,8.0,12,-99.99,,,-99.99,0.000000,,2013-03-15 02:42:00,
2013-03-14 19:52:00,86.0,28.0,29.94,East,85,3.0,6.0,12,-99.99,,,-99.99,0.000000,,2013-03-15 02:52:00,
2013-03-14 20:02:00,86.0,27.0,29.95,WSW,241,2.0,4.0,12,-99.99,,,-99.99,0.000000,,2013-03-15 03:02:00,
2013-03-14 20:12:00,86.0,27.0,29.95,South,179,3.0,12.0,12,-99.99,,,-99.99,0.000000,,2013-03-15 03:12:00,
2013-03-14 20:22:00,87.0,30.0,29.95,South,171,8.0,15.0,13,-99.99,,,-99.99,0.000000,,2013-03-15 03:22:00,
2013-03-14 20:32:00,86.0,33.0,29.95,South,170,12.0,18.0,15,-99.99,,,-99.99,0.000000,,2013-03-15 03:32:00,
2013-03-14 20:42:00,86.0,34.0,29.95,South,178,12.0,18.0,16,-99.99,,,-99.99,0.000000,,2013-03-15 03:42:00,
2013-03-14 20:52:00,85.0,34.0,29.95,South,179,11.0,18.0,16,-99.99,,,-99.99,0.000000,,2013-03-15 03:52:00,
2013-03-14 21:03:00,85.0,32.0,29.96,South,183,11.0,20.0,15,-99.99,,,-99.99,0.000000,,2013-03-15 04:03:00,
2013-03-14 21:12:00,85.0,34.0,29.96,South,179,12.0,17.0,16,-99.99,,,-99.99,0.000000,,2013-03-15 04:12:00,
2013-03-14 21:22:00,85.0,34.0,29.96,South,179,11.0,16.0,16,-99.99,,,-99.99,0.000000,,2013-03-15 04:22:00,
2013-03-14 21:32:00,84.0,33.0,29.97,South,185,8.0,13.0,16,-99.99,,,-99.99,0.000000,,2013-03-15 04:32:00,
2013-03-14 21:42:00,84.0,33.0,29.97,South,185,8.0,13.0,16,-99.99,,,-99.99,0.000000,,2013-03-15 04:42:00,
2013-03-14 21:52:00,84.0,33.0,29.97,SSW,194,8.0,10.0,16,-99.99,,,-99.99,0.000000,,2013-03-15 04:52:00,
2013-03-14 22:02:00,83.0,32.0,29.98,SW,221,8.0,14.0,16,-99.99,,,-99.99,0.000000,,2013-03-15 05:02:00,
2013-03-14 22:12:00,83.0,32.0,29.98,SW,221,8.0,14.0,16,-99.99,,,-99.99,0.000000,,2013-03-15 05:12:00,
2013-03-14 22:22:00,82.0,32.0,29.98,SW,222,6.0,13.0,16,-99.99,,,-99.99,0.000000,,2013-03-15 05:22:00,
2013-03-14 22:30:00,81.0,32.0,29.99,SW,216,9.0,13.0,17,-99.99,,,-99.99,0.000000,,2013-03-15 05:30:00,
2013-03-14 22:32:00,82.0,31.0,29.99,SSW,201,7.0,12.0,16,-99.99,,,-99.99,0.000000,,2013-03-15 05:32:00,
2013-03-14 22:42:00,81.0,32.0,29.99,SW,219,7.0,12.0,17,-99.99,,,-99.99,0.000000,,2013-03-15 05:42:00,
2013-03-14 22:52:00,81.0,32.0,29.99,SW,218,7.0,10.0,17,-99.99,,,-99.99,0.000000,,2013-03-15 05:52:00,
2013-03-14 23:02:00,81.0,32.0,29.99,SW,220,8.0,12.0,17,-99.99,,,-99.99,0.000000,,2013-03-15 06:02:00,
2013-03-14 23:12:00,81.0,32.0,29.99,SW,216,9.0,13.0,17,-99.99,,,-99.99,0.000000,,2013-03-15 06:12:00,
2013-03-14 23:22:00,81.0,32.0,29.99,SW,216,9.0,13.0,17,-99.99,,,-99.99,0.000000,,2013-03-15 06:22:00,